DELTA 1 DEB, 29181

Orbit data source: Space-Track

DELTA 1 DEB, 29181 is space debris in LEO originally from a launch on Thu, 11 Jan 1968 UTC launched from the Air Force Western Test Range (AFWTR). Debris objects in space refer to the collection of defunct objects orbiting the Earth. Examples of debris include non-operational satellites, rocket bodies, and fragments generated from explosions, collisions, or faulty payload assembly.

Loading next visibility...
Identifier
29181, 1968-002E
Orbit
LEO
Country
Flag of USUS
Related business
Manufacturer
Unknown
Mission
Spacecraft
Bus & Motor
Unknown
Mass
Unknown
Launch date (UTC)
1968-01-11 (58 years ago)
Launch vehicle
Unknown
Launch site
Air Force Western Test Range (AFWTR)
Object type
Payload
Rocket body
Debris
Shape & HBR
Unknown shape, 0.1 m
Radar Cross Section
Small (<0.1 m²)

Expand to show TLE details & history
Last TLE update: 11 months ago

TLE from 11 months ago
0 DELTA 1 DEB
1 29181U 68002E   25013.03373997  .00000090  00000-0  50953-3 0  9993
2 29181 105.7921 291.5651 0306850 334.8020  23.8353 12.91716047236620
Epoch: 2025-01-13T00:48Z
TLE epoch observation values (Epoch: 2025-01-13T00:48:35.133Z)
Latitude
-0.00006°
Longitude
166.65814°
Altitude
1,083.006 km
Speed
7.412 km/s
True Right ascension
19h 26m 15s
True Declination
0° 00' 00"
Sunlit
Object was in daylight at epoch
Visualization orbit readout
Latitude
Unknown
Longitude
Unknown
Altitude
Unknown
Speed
Unknown
Apparent Right ascension
Unknown
Apparent Declination
Unknown
Sunlit
N/A
Visualization observer readout
Local Sidereal Time
14:24:40
Azimuth
Unknown
Elevation
Unknown
Doppler factor
Unknown
Orbital elements
Apogee altitude
1,527.864 km
Perigee altitude
1,057.117 km
Semi-major axis
7,670.627 km
Eccentricity
0.03069
Inclination
105.7921°
RAAN
291.5651°
Arg. of periapsis
334.802°
True anomaly
25.30767°
Mean anomaly
23.8353°
Eccentric anomaly
24.56623°
Mean motion
3.2307 °/min
Orbital period
111.43 mins
BSTAR
0.00050953
Loading maneuver chart data...
Computing Atmospheric mass density...
Loading historical data...
Loading historical data...
Loading historical data...
Loading historical data...
Loading historical data...
Loading historical data...
Loading historical data...

Documentation

Showing up to 5 results
|